Year,Month,Day,Hour,Minute,Value (Times are PST for temperature in C)
2009,08,31,00,00,15.20
2009,08,31,00,01,15.20
2009,08,31,00,02,15.10
2009,08,31,00,03,15.10
2009,08,31,00,04,15.10
2009,08,31,00,05,15.00
2009,08,31,00,06,15.00
2009,08,31,00,07,15.00
2009,08,31,00,08,15.00
2009,08,31,00,09,15.00
2009,08,31,00,10,15.00
2009,08,31,00,11,15.00
2009,08,31,00,12,14.90
2009,08,31,00,13,14.90
2009,08,31,00,14,14.90
2009,08,31,00,15,14.80
2009,08,31,00,16,14.80
2009,08,31,00,17,14.80
2009,08,31,00,18,14.80
2009,08,31,00,19,14.80
2009,08,31,00,20,14.80
2009,08,31,00,21,14.80
2009,08,31,00,22,14.80
2009,08,31,00,23,14.80
2009,08,31,00,24,14.80
2009,08,31,00,25,14.80
2009,08,31,00,26,14.80
2009,08,31,00,27,14.80
2009,08,31,00,28,14.80
2009,08,31,00,29,14.80
2009,08,31,00,30,14.80
2009,08,31,00,31,14.80
2009,08,31,00,32,14.80
2009,08,31,00,33,14.80
2009,08,31,00,34,14.80
2009,08,31,00,35,14.80
2009,08,31,00,36,14.80
2009,08,31,00,37,14.80
2009,08,31,00,38,14.80
2009,08,31,00,39,14.80
2009,08,31,00,40,14.80
2009,08,31,00,41,14.80
2009,08,31,00,42,14.80
2009,08,31,00,43,14.80
2009,08,31,00,44,14.80
2009,08,31,00,45,14.80
2009,08,31,00,46,14.70
2009,08,31,00,47,14.70
2009,08,31,00,48,14.70
2009,08,31,00,49,14.70
2009,08,31,00,50,14.70
2009,08,31,00,51,14.70
2009,08,31,00,52,14.70
2009,08,31,00,53,14.70
2009,08,31,00,54,14.60
2009,08,31,00,55,14.60
2009,08,31,00,56,14.60
2009,08,31,00,57,14.60
2009,08,31,00,58,14.60
2009,08,31,00,59,14.60
2009,08,31,01,00,14.50
2009,08,31,01,01,14.50
2009,08,31,01,02,14.50
2009,08,31,01,03,14.50
2009,08,31,01,04,14.40
2009,08,31,01,05,14.40
2009,08,31,01,06,14.40
2009,08,31,01,07,14.40
2009,08,31,01,08,14.40
2009,08,31,01,09,14.40
2009,08,31,01,10,14.40
2009,08,31,01,11,14.50
2009,08,31,01,12,14.50
2009,08,31,01,13,14.50
2009,08,31,01,14,14.50
2009,08,31,01,15,14.60
2009,08,31,01,16,14.60
2009,08,31,01,17,14.60
2009,08,31,01,18,14.60
2009,08,31,01,19,14.60
2009,08,31,01,20,14.60
2009,08,31,01,21,14.60
2009,08,31,01,22,14.60
2009,08,31,01,23,14.60
2009,08,31,01,24,14.60
2009,08,31,01,25,14.60
2009,08,31,01,26,14.60
2009,08,31,01,27,14.60
2009,08,31,01,28,14.60
2009,08,31,01,29,14.60
2009,08,31,01,30,14.50
2009,08,31,01,31,14.50
2009,08,31,01,32,14.50
2009,08,31,01,33,14.40
2009,08,31,01,34,14.40
2009,08,31,01,35,14.40
2009,08,31,01,36,14.40
2009,08,31,01,37,14.30
2009,08,31,01,38,14.30
2009,08,31,01,39,14.30
2009,08,31,01,40,14.30
2009,08,31,01,41,14.20
2009,08,31,01,42,14.20
2009,08,31,01,43,14.20
2009,08,31,01,44,14.20
2009,08,31,01,45,14.10
2009,08,31,01,46,14.10
2009,08,31,01,47,14.10
2009,08,31,01,48,14.10
2009,08,31,01,49,14.10
2009,08,31,01,50,14.10
2009,08,31,01,51,14.00
2009,08,31,01,52,14.00
2009,08,31,01,53,14.00
2009,08,31,01,54,13.90
2009,08,31,01,55,13.90
2009,08,31,01,56,13.90
2009,08,31,01,57,13.90
2009,08,31,01,58,13.90
2009,08,31,01,59,13.90
2009,08,31,02,00,13.90
2009,08,31,02,01,13.80
2009,08,31,02,02,13.80
2009,08,31,02,03,13.80
2009,08,31,02,04,13.80
2009,08,31,02,05,13.80
2009,08,31,02,06,13.80
2009,08,31,02,07,13.80
2009,08,31,02,08,13.80
2009,08,31,02,09,13.80
2009,08,31,02,10,13.80
2009,08,31,02,11,13.80
2009,08,31,02,12,13.80
2009,08,31,02,13,13.80
2009,08,31,02,14,13.80
2009,08,31,02,15,13.80
2009,08,31,02,16,13.70
2009,08,31,02,17,13.70
2009,08,31,02,18,13.70
2009,08,31,02,19,13.70
2009,08,31,02,20,13.70
2009,08,31,02,21,13.70
2009,08,31,02,22,13.70
2009,08,31,02,23,13.70
2009,08,31,02,24,13.70
2009,08,31,02,25,13.70
2009,08,31,02,26,13.70
2009,08,31,02,27,13.70
2009,08,31,02,28,13.70
2009,08,31,02,29,13.70
2009,08,31,02,30,13.70
2009,08,31,02,31,13.70
2009,08,31,02,32,13.60
2009,08,31,02,33,13.60
2009,08,31,02,34,13.60
2009,08,31,02,35,13.60
2009,08,31,02,36,13.60
2009,08,31,02,37,13.60
2009,08,31,02,38,13.60
2009,08,31,02,39,13.60
2009,08,31,02,40,13.60
2009,08,31,02,41,13.50
2009,08,31,02,42,13.50
2009,08,31,02,43,13.50
2009,08,31,02,44,13.50
2009,08,31,02,45,13.50
2009,08,31,02,46,13.50
2009,08,31,02,47,13.50
2009,08,31,02,48,13.50
2009,08,31,02,49,13.50
2009,08,31,02,50,13.50
2009,08,31,02,51,13.50
2009,08,31,02,52,13.50
2009,08,31,02,53,13.50
2009,08,31,02,54,13.50
2009,08,31,02,55,13.50
2009,08,31,02,56,13.50
2009,08,31,02,57,13.50
2009,08,31,02,58,13.50
2009,08,31,02,59,13.50
2009,08,31,03,00,13.50
2009,08,31,03,01,13.40
2009,08,31,03,02,13.40
2009,08,31,03,03,13.40
2009,08,31,03,04,13.40
2009,08,31,03,05,13.40
2009,08,31,03,06,13.40
2009,08,31,03,07,13.50
2009,08,31,03,08,13.50
2009,08,31,03,09,13.50
2009,08,31,03,10,13.50
2009,08,31,03,11,13.50
2009,08,31,03,12,13.50
2009,08,31,03,13,13.50
2009,08,31,03,14,13.40
2009,08,31,03,15,13.40
2009,08,31,03,16,13.40
2009,08,31,03,17,13.40
2009,08,31,03,18,13.40
2009,08,31,03,19,13.40
2009,08,31,03,20,13.40
2009,08,31,03,21,13.40
2009,08,31,03,22,13.40
2009,08,31,03,23,13.40
2009,08,31,03,24,13.40
2009,08,31,03,25,13.40
2009,08,31,03,26,13.40
2009,08,31,03,27,13.40
2009,08,31,03,28,13.30
2009,08,31,03,29,13.30
2009,08,31,03,30,13.30
2009,08,31,03,31,13.30
2009,08,31,03,32,13.30
2009,08,31,03,33,13.30
2009,08,31,03,34,13.30
2009,08,31,03,35,13.30
2009,08,31,03,36,13.30
2009,08,31,03,37,13.30
2009,08,31,03,38,13.30
2009,08,31,03,39,13.40
2009,08,31,03,40,13.40
2009,08,31,03,41,13.40
2009,08,31,03,42,13.40
2009,08,31,03,43,13.40
2009,08,31,03,44,13.40
2009,08,31,03,45,13.40
2009,08,31,03,46,13.40
2009,08,31,03,47,13.40
2009,08,31,03,48,13.40
2009,08,31,03,49,13.40
2009,08,31,03,50,13.40
2009,08,31,03,51,13.40
2009,08,31,03,52,13.40
2009,08,31,03,53,13.40
2009,08,31,03,54,13.40
2009,08,31,03,55,13.40
2009,08,31,03,56,13.30
2009,08,31,03,57,13.30
2009,08,31,03,58,13.30
2009,08,31,03,59,13.30
2009,08,31,04,00,13.30
2009,08,31,04,01,13.30
2009,08,31,04,02,13.40
2009,08,31,04,03,13.40
2009,08,31,04,07,13.40
2009,08,31,04,08,13.40
2009,08,31,04,09,13.30
2009,08,31,04,10,13.30
2009,08,31,04,11,13.30
2009,08,31,04,12,13.30
2009,08,31,04,13,13.30
2009,08,31,04,14,13.30
2009,08,31,04,15,13.30
2009,08,31,04,16,13.30
2009,08,31,04,17,13.30
2009,08,31,04,18,13.30
2009,08,31,04,19,13.30
2009,08,31,04,20,13.40
2009,08,31,04,21,13.40
2009,08,31,04,22,13.40
2009,08,31,04,23,13.40
2009,08,31,04,24,13.40
2009,08,31,04,25,13.40
2009,08,31,04,26,13.40
2009,08,31,04,27,13.30
2009,08,31,04,28,13.30
2009,08,31,04,29,13.30
2009,08,31,04,30,13.30
2009,08,31,04,31,13.30
2009,08,31,04,32,13.30
2009,08,31,04,33,13.30
2009,08,31,04,34,13.30
2009,08,31,04,35,13.30
2009,08,31,04,36,13.30
2009,08,31,04,37,13.30
2009,08,31,04,38,13.30
2009,08,31,04,39,13.20
2009,08,31,04,40,13.20
2009,08,31,04,41,13.20
2009,08,31,04,42,13.20
2009,08,31,04,43,13.20
2009,08,31,04,44,13.20
2009,08,31,04,45,13.20
2009,08,31,04,46,13.20
2009,08,31,04,47,13.20
2009,08,31,04,48,13.20
2009,08,31,04,49,13.20
2009,08,31,04,50,13.20
2009,08,31,04,51,13.20
2009,08,31,04,52,13.20
2009,08,31,04,53,13.20
2009,08,31,04,54,13.10
2009,08,31,04,55,13.10
2009,08,31,04,56,13.10
2009,08,31,04,57,13.10
2009,08,31,04,58,13.10
2009,08,31,04,59,13.10
2009,08,31,05,00,13.10
2009,08,31,05,01,13.10
2009,08,31,05,02,13.10
2009,08,31,05,03,13.10
2009,08,31,05,04,13.00
2009,08,31,05,05,13.00
2009,08,31,05,06,13.00
2009,08,31,05,07,13.00
2009,08,31,05,08,13.00
2009,08,31,05,09,13.00
2009,08,31,05,10,13.00
2009,08,31,05,11,12.90
2009,08,31,05,12,12.90
2009,08,31,05,13,12.90
2009,08,31,05,14,12.90
2009,08,31,05,15,12.90
2009,08,31,05,16,12.90
2009,08,31,05,17,12.90
2009,08,31,05,18,12.90
2009,08,31,05,19,12.80
2009,08,31,05,20,12.80
2009,08,31,05,21,12.80
2009,08,31,05,22,12.80
2009,08,31,05,23,12.80
2009,08,31,05,24,12.80
2009,08,31,05,25,12.80
2009,08,31,05,26,12.80
2009,08,31,05,27,12.80
2009,08,31,05,28,12.80
2009,08,31,05,29,12.70
2009,08,31,05,30,12.70
2009,08,31,05,31,12.70
2009,08,31,05,32,12.70
2009,08,31,05,33,12.70
2009,08,31,05,34,12.70
2009,08,31,05,35,12.70
2009,08,31,05,36,12.70
2009,08,31,05,37,12.70
2009,08,31,05,38,12.70
2009,08,31,05,39,12.70
2009,08,31,05,40,12.70
2009,08,31,05,41,12.70
2009,08,31,05,42,12.70
2009,08,31,05,43,12.60
2009,08,31,05,44,12.60
2009,08,31,05,45,12.60
2009,08,31,05,46,12.60
2009,08,31,05,47,12.60
2009,08,31,05,48,12.60
2009,08,31,05,49,12.60
2009,08,31,05,50,12.60
2009,08,31,05,51,12.60
2009,08,31,05,52,12.60
2009,08,31,05,53,12.60
2009,08,31,05,54,12.60
2009,08,31,05,55,12.60
2009,08,31,05,56,12.60
2009,08,31,05,57,12.60
2009,08,31,05,58,12.60
2009,08,31,05,59,12.60
2009,08,31,06,00,12.60
2009,08,31,06,01,12.60
2009,08,31,06,02,12.60
2009,08,31,06,03,12.60
2009,08,31,06,04,12.60
2009,08,31,06,05,12.60
2009,08,31,06,06,12.60
2009,08,31,06,07,12.60
2009,08,31,06,08,12.60
2009,08,31,06,09,12.50
2009,08,31,06,10,12.50
2009,08,31,06,11,12.50
2009,08,31,06,12,12.50
2009,08,31,06,13,12.50
2009,08,31,06,14,12.50
2009,08,31,06,15,12.50
2009,08,31,06,16,12.50
2009,08,31,06,17,12.50
2009,08,31,06,18,12.50
2009,08,31,06,19,12.50
2009,08,31,06,20,12.50
2009,08,31,06,21,12.50
2009,08,31,06,22,12.50
2009,08,31,06,23,12.50
2009,08,31,06,24,12.50
2009,08,31,06,25,12.50
2009,08,31,06,26,12.50
2009,08,31,06,27,12.50
2009,08,31,06,28,12.50
2009,08,31,06,29,12.50
2009,08,31,06,30,12.50
2009,08,31,06,31,12.50
2009,08,31,06,32,12.50
2009,08,31,06,33,12.50
2009,08,31,06,34,12.50
2009,08,31,06,35,12.60
2009,08,31,06,36,12.60
2009,08,31,06,37,12.60
2009,08,31,06,38,12.60
2009,08,31,06,39,12.60
2009,08,31,06,40,12.70
2009,08,31,06,41,12.70
2009,08,31,06,42,12.70
2009,08,31,06,43,12.70
2009,08,31,06,44,12.70
2009,08,31,06,45,12.70
2009,08,31,06,46,12.70
2009,08,31,06,47,12.70
2009,08,31,06,48,12.60
2009,08,31,06,49,12.60
2009,08,31,06,50,12.60
2009,08,31,06,51,12.60
2009,08,31,06,52,12.60
2009,08,31,06,53,12.60
2009,08,31,06,54,12.60
2009,08,31,06,55,12.60
2009,08,31,06,56,12.60
2009,08,31,06,57,12.50
2009,08,31,06,58,12.50
2009,08,31,06,59,12.50
2009,08,31,07,00,12.50
2009,08,31,07,01,12.40
2009,08,31,07,02,12.40
2009,08,31,07,03,12.40
2009,08,31,07,04,12.40
2009,08,31,07,05,12.40
2009,08,31,07,06,12.40
2009,08,31,07,07,12.40
2009,08,31,07,08,12.40
2009,08,31,07,09,12.40
2009,08,31,07,10,12.40
2009,08,31,07,11,12.30
2009,08,31,07,12,12.30
2009,08,31,07,13,12.30
2009,08,31,07,14,12.30
2009,08,31,07,15,12.30
2009,08,31,07,16,12.30
2009,08,31,07,17,12.30
2009,08,31,07,18,12.30
2009,08,31,07,19,12.30
2009,08,31,07,20,12.30
2009,08,31,07,21,12.30
2009,08,31,07,22,12.40
2009,08,31,07,23,12.40
2009,08,31,07,24,12.40
2009,08,31,07,25,12.40
2009,08,31,07,26,12.40
2009,08,31,07,27,12.50
2009,08,31,07,28,12.50
2009,08,31,07,29,12.60
2009,08,31,07,30,12.60
2009,08,31,07,31,12.70
2009,08,31,07,32,12.80
2009,08,31,07,33,12.80
2009,08,31,07,34,12.80
2009,08,31,07,35,12.90
2009,08,31,07,36,12.90
2009,08,31,07,37,13.00
2009,08,31,07,38,13.00
2009,08,31,07,39,13.10
2009,08,31,07,40,13.10
2009,08,31,07,41,13.20
2009,08,31,07,42,13.20
2009,08,31,07,43,13.30
2009,08,31,07,44,13.40
2009,08,31,07,45,13.50
2009,08,31,07,46,13.60
2009,08,31,07,47,13.60
2009,08,31,07,48,13.70
2009,08,31,07,49,13.80
2009,08,31,07,50,13.80
2009,08,31,07,51,13.90
2009,08,31,07,52,14.00
2009,08,31,07,53,14.10
2009,08,31,07,54,14.10
2009,08,31,07,55,14.20
2009,08,31,07,56,14.20
2009,08,31,07,57,14.30
2009,08,31,07,58,14.30
2009,08,31,07,59,14.40
2009,08,31,08,00,14.50
2009,08,31,08,01,14.60
2009,08,31,08,02,14.70
2009,08,31,08,03,14.80
2009,08,31,08,04,15.00
2009,08,31,08,05,15.00
2009,08,31,08,06,15.00
2009,08,31,08,07,15.20
2009,08,31,08,08,15.30
2009,08,31,08,09,15.40
2009,08,31,08,10,15.50
2009,08,31,08,11,15.60
2009,08,31,08,12,15.70
2009,08,31,08,13,15.80
2009,08,31,08,14,15.90
2009,08,31,08,15,16.00
2009,08,31,08,16,16.10
2009,08,31,08,17,16.20
2009,08,31,08,18,16.30
2009,08,31,08,19,16.30
2009,08,31,08,20,16.40
2009,08,31,08,21,16.50
2009,08,31,08,22,16.50
2009,08,31,08,23,16.60
2009,08,31,08,24,16.70
2009,08,31,08,25,16.70
2009,08,31,08,26,16.80
2009,08,31,08,27,16.90
2009,08,31,08,28,16.90
2009,08,31,08,29,17.00
2009,08,31,08,30,17.10
2009,08,31,08,31,17.10
2009,08,31,08,32,17.20
2009,08,31,08,33,17.20
2009,08,31,08,34,17.30
2009,08,31,08,35,17.30
2009,08,31,08,36,17.40
2009,08,31,08,37,17.40
2009,08,31,08,38,17.50
2009,08,31,08,39,17.60
2009,08,31,08,40,17.60
2009,08,31,08,41,17.70
2009,08,31,08,42,17.70
2009,08,31,08,43,17.80
2009,08,31,08,44,17.80
2009,08,31,08,45,17.80
2009,08,31,08,46,17.90
2009,08,31,08,47,17.90
2009,08,31,08,48,18.00
2009,08,31,08,49,18.00
2009,08,31,08,50,18.10
2009,08,31,08,51,18.20
2009,08,31,08,52,18.30
2009,08,31,08,53,18.40
2009,08,31,08,54,18.40
2009,08,31,08,55,18.50
2009,08,31,08,56,18.60
2009,08,31,08,57,18.70
2009,08,31,08,58,18.70
2009,08,31,08,59,18.80
2009,08,31,09,00,18.80
2009,08,31,09,01,18.80
2009,08,31,09,02,18.90
2009,08,31,09,03,18.90
2009,08,31,09,04,18.90
2009,08,31,09,05,18.90
2009,08,31,09,06,18.90
2009,08,31,09,07,18.90
2009,08,31,09,08,18.90
2009,08,31,09,09,18.90
2009,08,31,09,10,18.90
2009,08,31,09,11,18.90
2009,08,31,09,12,18.90
2009,08,31,09,13,18.90
2009,08,31,09,14,18.90
2009,08,31,09,15,18.80
2009,08,31,09,16,18.80
2009,08,31,09,17,18.80
2009,08,31,09,18,18.80
2009,08,31,09,19,18.80
2009,08,31,09,20,18.80
2009,08,31,09,21,18.80
2009,08,31,09,22,18.80
2009,08,31,09,23,18.80
2009,08,31,09,24,18.80
2009,08,31,09,25,18.80
2009,08,31,09,26,18.90
2009,08,31,09,27,18.90
2009,08,31,09,28,18.90
2009,08,31,09,29,18.90
2009,08,31,09,30,18.90
2009,08,31,09,31,18.90
2009,08,31,09,32,18.90
2009,08,31,09,33,18.90
2009,08,31,09,34,18.90
2009,08,31,09,35,18.90
2009,08,31,09,36,18.80
2009,08,31,09,37,18.90
2009,08,31,09,38,18.90
2009,08,31,09,39,18.90
2009,08,31,09,40,19.00
2009,08,31,09,41,19.00
2009,08,31,09,42,19.00
2009,08,31,09,43,19.10
2009,08,31,09,44,19.10
2009,08,31,09,45,19.20
2009,08,31,09,46,19.20
2009,08,31,09,47,19.20
2009,08,31,09,48,19.20
2009,08,31,09,49,19.20
2009,08,31,09,50,19.30
2009,08,31,09,51,19.30
2009,08,31,09,52,19.20
2009,08,31,09,53,19.20
2009,08,31,09,54,19.20
2009,08,31,09,55,19.30
2009,08,31,09,56,19.30
2009,08,31,09,57,19.30
2009,08,31,09,58,19.30
2009,08,31,09,59,19.40
2009,08,31,10,00,19.40
2009,08,31,10,01,19.50
2009,08,31,10,02,19.60
2009,08,31,10,03,19.60
2009,08,31,10,04,19.70
2009,08,31,10,05,19.70
2009,08,31,10,06,19.70
2009,08,31,10,07,19.60
2009,08,31,10,08,19.70
2009,08,31,10,09,19.60
2009,08,31,10,10,19.50
2009,08,31,10,11,19.50
2009,08,31,10,12,19.40
2009,08,31,10,13,19.40
2009,08,31,10,14,19.50
2009,08,31,10,15,19.50
2009,08,31,10,16,19.50
2009,08,31,10,17,19.50
2009,08,31,10,18,19.60
2009,08,31,10,19,19.60
2009,08,31,10,20,19.60
2009,08,31,10,21,19.60
2009,08,31,10,22,19.70
2009,08,31,10,23,19.70
2009,08,31,10,24,19.80
2009,08,31,10,25,19.90
2009,08,31,10,26,20.00
2009,08,31,10,27,20.00
2009,08,31,10,28,20.10
2009,08,31,10,29,20.20
2009,08,31,10,30,20.20
2009,08,31,10,31,20.20
2009,08,31,10,32,20.10
2009,08,31,10,33,20.00
2009,08,31,10,34,20.00
2009,08,31,10,35,20.00
2009,08,31,10,36,19.90
2009,08,31,10,37,19.90
2009,08,31,10,38,19.90
2009,08,31,10,39,19.90
2009,08,31,10,40,19.90
2009,08,31,10,41,19.90
2009,08,31,10,42,19.90
2009,08,31,10,43,20.00
2009,08,31,10,44,20.00
2009,08,31,10,45,20.00
2009,08,31,10,46,20.00
2009,08,31,10,47,20.00
2009,08,31,10,48,20.00
2009,08,31,10,49,20.10
2009,08,31,10,50,20.10
2009,08,31,10,51,20.10
2009,08,31,10,52,20.10
2009,08,31,10,53,20.20
2009,08,31,10,54,20.20
2009,08,31,10,55,20.30
2009,08,31,10,56,20.30
2009,08,31,10,57,20.40
2009,08,31,10,58,20.40
2009,08,31,10,59,20.40
2009,08,31,11,00,20.40
2009,08,31,11,01,20.40
2009,08,31,11,02,20.40
2009,08,31,11,03,20.30
2009,08,31,11,04,20.30
2009,08,31,11,05,20.30
2009,08,31,11,06,20.30
2009,08,31,11,07,20.30
2009,08,31,11,08,20.30
2009,08,31,11,09,20.40
2009,08,31,11,10,20.40
2009,08,31,11,11,20.50
2009,08,31,11,12,20.50
2009,08,31,11,13,20.40
2009,08,31,11,14,20.40
2009,08,31,11,15,20.40
2009,08,31,11,16,20.40
2009,08,31,11,17,20.50
2009,08,31,11,18,20.60
2009,08,31,11,19,20.60
2009,08,31,11,20,20.70
2009,08,31,11,21,20.70
2009,08,31,11,22,20.70
2009,08,31,11,23,20.70
2009,08,31,11,24,20.70
2009,08,31,11,25,20.70
2009,08,31,11,26,20.70
2009,08,31,11,27,20.70
2009,08,31,11,28,20.80
2009,08,31,11,29,20.80
2009,08,31,11,30,20.80
2009,08,31,11,31,20.80
2009,08,31,11,32,20.80
2009,08,31,11,33,20.80
2009,08,31,11,34,20.70
2009,08,31,11,35,20.70
2009,08,31,11,36,20.70
2009,08,31,11,37,20.70
2009,08,31,11,38,20.70
2009,08,31,11,39,20.80
2009,08,31,11,40,20.80
2009,08,31,11,41,20.80
2009,08,31,11,42,20.80
2009,08,31,11,43,20.80
2009,08,31,11,44,20.80
2009,08,31,11,45,20.90
2009,08,31,11,46,20.90
2009,08,31,11,47,21.00
2009,08,31,11,48,21.00
2009,08,31,11,49,20.90
2009,08,31,11,50,20.90
2009,08,31,11,51,20.90
2009,08,31,11,52,20.90
2009,08,31,11,53,20.90
2009,08,31,11,54,20.90
2009,08,31,11,55,20.90
2009,08,31,11,56,21.00
2009,08,31,11,57,21.10
2009,08,31,11,58,21.20
2009,08,31,11,59,21.30
2009,08,31,12,00,21.30
2009,08,31,12,01,21.30
2009,08,31,12,02,21.30
2009,08,31,12,03,21.20
2009,08,31,12,04,21.20
2009,08,31,12,05,21.10
2009,08,31,12,06,21.00
2009,08,31,12,07,21.00
2009,08,31,12,08,21.10
2009,08,31,12,09,21.10
2009,08,31,12,10,21.20
2009,08,31,12,11,21.20
2009,08,31,12,12,21.20
2009,08,31,12,13,21.20
2009,08,31,12,14,21.30
2009,08,31,12,15,21.30
2009,08,31,12,16,21.40
2009,08,31,12,17,21.40
2009,08,31,12,18,21.40
2009,08,31,12,19,21.40
2009,08,31,12,20,21.50
2009,08,31,12,21,21.50
2009,08,31,12,22,21.40
2009,08,31,12,23,21.40
2009,08,31,12,24,21.40
2009,08,31,12,25,21.40
2009,08,31,12,26,21.40
2009,08,31,12,27,21.50
2009,08,31,12,28,21.60
2009,08,31,12,29,21.70
2009,08,31,12,30,21.80
2009,08,31,12,31,21.80
2009,08,31,12,32,21.90
2009,08,31,12,33,22.00
2009,08,31,12,34,22.10
2009,08,31,12,35,22.00
2009,08,31,12,36,22.00
2009,08,31,12,37,22.00
2009,08,31,12,38,22.10
2009,08,31,12,39,22.10
2009,08,31,12,40,22.10
2009,08,31,12,41,22.00
2009,08,31,12,42,22.00
2009,08,31,12,43,22.10
2009,08,31,12,44,22.10
2009,08,31,12,45,22.20
2009,08,31,12,46,22.10
2009,08,31,12,47,22.10
2009,08,31,12,48,22.20
2009,08,31,12,49,22.20
2009,08,31,12,50,22.10
2009,08,31,12,51,22.10
2009,08,31,12,52,22.00
2009,08,31,12,53,21.80
2009,08,31,12,54,21.80
2009,08,31,12,55,21.90
2009,08,31,12,56,21.90
2009,08,31,12,57,21.90
2009,08,31,12,58,21.90
2009,08,31,12,59,21.90
2009,08,31,13,00,22.00
2009,08,31,13,01,22.00
2009,08,31,13,02,22.00
2009,08,31,13,03,22.00
2009,08,31,13,04,22.10
2009,08,31,13,05,22.10
2009,08,31,13,06,22.20
2009,08,31,13,07,22.30
2009,08,31,13,08,22.40
2009,08,31,13,09,22.50
2009,08,31,13,10,22.60
2009,08,31,13,11,22.60
2009,08,31,13,12,22.60
2009,08,31,13,13,22.70
2009,08,31,13,14,22.70
2009,08,31,13,15,22.60
2009,08,31,13,16,22.60
2009,08,31,13,17,22.60
2009,08,31,13,18,22.70
2009,08,31,13,19,22.60
2009,08,31,13,20,22.50
2009,08,31,13,21,22.40
2009,08,31,13,22,22.20
2009,08,31,13,23,22.10
2009,08,31,13,24,22.00
2009,08,31,13,25,21.90
2009,08,31,13,26,21.90
2009,08,31,13,27,21.80
2009,08,31,13,28,21.80
2009,08,31,13,29,21.70
2009,08,31,13,30,21.70
2009,08,31,13,31,21.80
2009,08,31,13,32,21.80
2009,08,31,13,33,21.80
2009,08,31,13,34,21.80
2009,08,31,13,35,21.80
2009,08,31,13,36,21.80
2009,08,31,13,37,21.80
2009,08,31,13,38,21.80
2009,08,31,13,39,21.80
2009,08,31,13,40,21.70
2009,08,31,13,41,21.80
2009,08,31,13,42,21.80
2009,08,31,13,43,21.70
2009,08,31,13,44,21.70
2009,08,31,13,45,21.70
2009,08,31,13,46,21.70
2009,08,31,13,47,21.60
2009,08,31,13,48,21.60
2009,08,31,13,49,21.70
2009,08,31,13,50,21.80
2009,08,31,13,51,21.80
2009,08,31,13,52,21.70
2009,08,31,13,53,21.60
2009,08,31,13,54,21.60
2009,08,31,13,55,21.60
2009,08,31,13,56,21.70
2009,08,31,13,57,21.70
2009,08,31,13,58,21.80
2009,08,31,13,59,21.90
2009,08,31,14,00,21.90
2009,08,31,14,01,22.00
2009,08,31,14,02,22.00
2009,08,31,14,03,22.10
2009,08,31,14,04,22.20
2009,08,31,14,05,22.20
2009,08,31,14,06,22.10
2009,08,31,14,07,22.10
2009,08,31,14,08,22.00
2009,08,31,14,09,21.90
2009,08,31,14,10,21.90
2009,08,31,14,11,22.00
2009,08,31,14,12,22.00
2009,08,31,14,13,21.90
2009,08,31,14,14,21.80
2009,08,31,14,15,21.70
2009,08,31,14,16,21.70
2009,08,31,14,17,21.80
2009,08,31,14,18,21.80
2009,08,31,14,19,21.80
2009,08,31,14,20,21.80
2009,08,31,14,21,21.90
2009,08,31,14,22,21.90
2009,08,31,14,23,21.90
2009,08,31,14,24,21.90
2009,08,31,14,25,21.90
2009,08,31,14,26,21.90
2009,08,31,14,27,21.90
2009,08,31,14,28,21.80
2009,08,31,14,29,21.80
2009,08,31,14,30,21.80
2009,08,31,14,31,21.80
2009,08,31,14,32,21.80
2009,08,31,14,33,21.80
2009,08,31,14,34,21.80
2009,08,31,14,35,21.80
2009,08,31,14,36,21.80
2009,08,31,14,37,21.80
2009,08,31,14,38,21.80
2009,08,31,14,39,21.90
2009,08,31,14,40,22.00
2009,08,31,14,41,22.10
2009,08,31,14,42,22.10
2009,08,31,14,43,22.20
2009,08,31,14,44,22.10
2009,08,31,14,45,22.10
2009,08,31,14,46,22.00
2009,08,31,14,47,22.00
2009,08,31,14,48,22.10
2009,08,31,14,49,22.20
2009,08,31,14,50,22.40
2009,08,31,14,51,22.40
2009,08,31,14,52,22.40
2009,08,31,14,53,22.40
2009,08,31,14,54,22.40
2009,08,31,14,55,22.50
2009,08,31,14,56,22.50
2009,08,31,14,57,22.60
2009,08,31,14,58,22.60
2009,08,31,14,59,22.70
2009,08,31,15,00,22.80
2009,08,31,15,01,22.80
2009,08,31,15,02,22.80
2009,08,31,15,03,22.70
2009,08,31,15,04,22.70
2009,08,31,15,05,22.70
2009,08,31,15,06,22.70
2009,08,31,15,07,22.60
2009,08,31,15,08,22.60
2009,08,31,15,09,22.60
2009,08,31,15,10,22.70
2009,08,31,15,11,22.70
2009,08,31,15,12,22.60
2009,08,31,15,13,22.70
2009,08,31,15,14,22.70
2009,08,31,15,15,22.70
2009,08,31,15,16,22.80
2009,08,31,15,17,22.90
2009,08,31,15,18,23.00
2009,08,31,15,19,23.10
2009,08,31,15,20,23.20
2009,08,31,15,21,23.20
2009,08,31,15,22,23.20
2009,08,31,15,23,23.20
2009,08,31,15,24,23.30
2009,08,31,15,25,23.30
2009,08,31,15,26,23.40
2009,08,31,15,27,23.40
2009,08,31,15,28,23.40
2009,08,31,15,29,23.30
2009,08,31,15,30,23.20
2009,08,31,15,31,23.10
2009,08,31,15,32,23.10
2009,08,31,15,33,23.00
2009,08,31,15,34,23.00
2009,08,31,15,35,22.80
2009,08,31,15,36,22.70
2009,08,31,15,37,22.80
2009,08,31,15,38,22.80
2009,08,31,15,39,22.90
2009,08,31,15,40,22.80
2009,08,31,15,41,22.70
2009,08,31,15,42,22.60
2009,08,31,15,43,22.60
2009,08,31,15,44,22.60
2009,08,31,15,45,22.70
2009,08,31,15,46,22.60
2009,08,31,15,47,22.50
2009,08,31,15,48,22.50
2009,08,31,15,49,22.50
2009,08,31,15,50,22.50
2009,08,31,15,51,22.50
2009,08,31,15,52,22.40
2009,08,31,15,53,22.40
2009,08,31,15,54,22.50
2009,08,31,15,55,22.50
2009,08,31,15,56,22.50
2009,08,31,15,57,22.40
2009,08,31,15,58,22.50
2009,08,31,15,59,22.50
2009,08,31,16,00,22.40
2009,08,31,16,01,22.30
2009,08,31,16,02,22.20
2009,08,31,16,03,22.20
2009,08,31,16,04,22.10
2009,08,31,16,05,22.10
2009,08,31,16,06,22.10
2009,08,31,16,07,22.20
2009,08,31,16,08,22.20
2009,08,31,16,09,22.20
2009,08,31,16,10,22.30
2009,08,31,16,11,22.30
2009,08,31,16,12,22.40
2009,08,31,16,13,22.50
2009,08,31,16,14,22.60
2009,08,31,16,15,22.70
2009,08,31,16,16,22.70
2009,08,31,16,17,22.70
2009,08,31,16,18,22.60
2009,08,31,16,19,22.50
2009,08,31,16,20,22.50
2009,08,31,16,21,22.50
2009,08,31,16,22,22.60
2009,08,31,16,23,22.60
2009,08,31,16,24,22.50
2009,08,31,16,25,22.40
2009,08,31,16,26,22.40
2009,08,31,16,27,22.40
2009,08,31,16,28,22.40
2009,08,31,16,29,22.40
2009,08,31,16,30,22.30
2009,08,31,16,31,22.30
2009,08,31,16,32,22.30
2009,08,31,16,33,22.30
2009,08,31,16,34,22.30
2009,08,31,16,35,22.40
2009,08,31,16,36,22.50
2009,08,31,16,37,22.50
2009,08,31,16,38,22.60
2009,08,31,16,39,22.60
2009,08,31,16,40,22.60
2009,08,31,16,41,22.60
2009,08,31,16,42,22.60
2009,08,31,16,43,22.60
2009,08,31,16,44,22.60
2009,08,31,16,45,22.70
2009,08,31,16,46,22.80
2009,08,31,16,47,22.80
2009,08,31,16,48,22.90
2009,08,31,16,49,22.90
2009,08,31,16,50,22.80
2009,08,31,16,51,22.70
2009,08,31,16,52,22.70
2009,08,31,16,53,22.70
2009,08,31,16,54,22.70
2009,08,31,16,55,22.70
2009,08,31,16,56,22.70
2009,08,31,16,57,22.60
2009,08,31,16,58,22.60
2009,08,31,16,59,22.70
2009,08,31,17,00,22.70
2009,08,31,17,01,22.70
2009,08,31,17,02,22.70
2009,08,31,17,03,22.70
2009,08,31,17,04,22.60
2009,08,31,17,05,22.60
2009,08,31,17,06,22.50
2009,08,31,17,07,22.50
2009,08,31,17,08,22.50
2009,08,31,17,09,22.50
2009,08,31,17,10,22.40
2009,08,31,17,11,22.40
2009,08,31,17,12,22.40
2009,08,31,17,13,22.30
2009,08,31,17,14,22.20
2009,08,31,17,15,22.20
2009,08,31,17,16,22.20
2009,08,31,17,17,22.30
2009,08,31,17,18,22.30
2009,08,31,17,19,22.30
2009,08,31,17,20,22.30
2009,08,31,17,21,22.30
2009,08,31,17,22,22.40